Showing default

GEESAT 3-06, 61016

Orbit data source: Space-Track

GEESAT 3-06, 61016 is a payload satellite owned by GeeSpace (CN) in LEO that was launched on Thu, 05 Sep 2024 UTC via a CHANG ZHENG 6 launch vehicle from the Taiyaun Space Center, China (TSC). Payloads include a variety of satellites, spacecraft, and rockets equipped with specific instruments for various scientific and technological missions. These include communications satellites like Starlink; space stations such as the ISS; scientific satellites like the Hubble; Earth observation satellites from companies like Planet Labs, Umbra, and HawkEye 360; GPS; miniature CubeSats for education and research; and military/defense satellites.

Loading next visibility...
GEESAT 3-06 details
Identifier
61016, 2024-159F
Orbit
LEO
Last TLE update10 hours ago
Origin
Flag of CNGeeSpace (CN / PRC)
ManufacturerTaizhou Xingkong
MissionOperational spacecraft
Bus & MotorGEESAT1, Unknown motor
Mass130 kg wet, 130 kg dry
Launch date (UTC)
2024-09-05 (4 months ago)
Launch vehicle
CHANG ZHENG 6
Launch site
Taiyaun Space Center, China (TSC)
Object type
Payload
Rocket body
Debris
Shape & HBRUnknown
Radar Cross SectionMedium (>0.1 m² and <1 m²)

Expand to show TLE details & history

TLE from 10 hours ago
0 GEESAT 3-06
1 61016U 24159F   25015.09231971  .00006862  00000-0  69534-3 0  9992
2 61016  50.0003 342.4744 0013397 350.3971   9.6713 14.91786172 19599
Epoch: 2025-01-15T02:12Z
Definitive object data (Epoch: 2025-01-15T02:12:56.422Z)
Latitude-0.00003°
Longitude-165.55034°
Altitude583.707 km
Speed7.575 km/s
True Right ascension22h 49m 53s
True Declination0° 00' 00"
Sunlit
Object was in daylight at TLE epoch
Visualization TLE readout
Latitude8.39148°
Longitude-160.37576°
Altitude583.368 km
Speed7.575 km/s
Apparent Right ascension23h 45m 33s
Apparent Declination-14° 47' 28"
Sunlit
Object is in daylight
Visualization observer readout
Local Sidereal Time12:34:53
Azimuth26.721° NE
Elevation-62.656°
Doppler factor1
Orbital elements
Apogee altitude602.466 km
Perigee altitude583.788 km
Semi-major axis6,971.264 km
Eccentricity0.0013397
Inclination50.0003°
RAAN342.4744°
Arg. of periapsis350.3971°
True anomaly9.69713°
Mean anomaly9.6713°
Eccentric anomaly9.68421°
Mean motion3.72886 °/min
BSTAR0.00069534
Orbital period96.54 mins
Loading maneuver chart data...
Loading historical data...
Loading historical data...
Loading historical data...
Loading historical data...
Loading historical data...
Loading historical data...
Loading historical data...

GEESAT 3-06 Visibility forecast

Observer location: undefined°, undefined

Span
Click to sort rows by Start time (UTC) header in descending order
Start Az.
Max El. time (UTC)
Max El. Az.
Max El.
End time (UTC)
End Az.
5 mins2025-01-15 23:16:36.611Z164.338° S2025-01-15 23:18:36.611Z131.385° SE17.74°2025-01-15 23:21:36.611Z87.057° E
6 mins2025-01-16 00:56:36.611Z244.487° WSW2025-01-16 00:58:36.611Z276.255° WNW42.978°2025-01-16 01:02:36.611Z52.569° ENE
5 mins2025-01-16 02:38:36.611Z310.359° NW2025-01-16 02:40:36.611Z352.53° N23.498°2025-01-16 02:43:36.611Z40.535° NE
5 mins2025-01-16 04:20:36.611Z336.67° NNW2025-01-16 04:22:36.611Z15.776° NNE20.881°2025-01-16 04:25:36.611Z59.578° ENE
7 mins2025-01-16 06:00:36.611Z316.463° NNW2025-01-16 06:03:36.611Z18.927° NNE37.015°2025-01-16 06:07:36.611Z101.54° ESE
6 mins2025-01-16 07:41:36.611Z280.212° WNW2025-01-16 07:44:36.611Z220.512° SW28.558°2025-01-16 07:47:36.611Z165.967° S
|